Tracking 35331 objects as of 15-Sep-2026
HD Live streaming from Space Station
objects crossing your sky now

DELTA 1 DEB


DELTA 1 DEB is no longer on orbit


NORAD ID: 7975
Int'l Code: 1972-058CW
Launch date: July 23, 1972
Source: United States (US)
Launch site: AIR FORCE WESTERN TEST RANGE (AFWTR)
Decay date: 1980-03-31

Note: This is SATELLITE DEBRIS
Your satellite tracking list
Your tracking list is empty




NASA's NSSDC Master Catalog

Two Line Element Set (TLE):
1 07975U 72058 CW 80082.50229622  .01231781 +00000-0 +19129-1 0  9992
2 07975 098.2060 124.5870 0024637 077.9186 287.5275 15.53558781255020
Source of the keplerian elements: AFSPC